Regional Weather Roundup
Issued by NWS Midland/Odessa, TX

Skip options and go directly to product.
Home | Oldest Version | Previous Version | Current Version | All | Text Only | Save Text | Print | Product List | Glossary On

Skip product version selection by date and time.   
638
ASUS44 KMAF 220501
RWRMAF
MIDLAND AREA WEATHER ROUNDUP
NATIONAL WEATHER SERVICE MIDLAND TX
1100 PM CST SUN DEC 21 2014

...IN SOUTHWEST TEXAS AND SOUTHEAST NEW MEXICO...

CITY           SKY/WX    TMP DP  RH WIND       PRES   REMARKS
ALPINE         CLEAR     54  22  28 S9        29.96F
ANDREWS        FAIR      55  27  33 W14G23    29.72S
ARTESIA        CLOUDY    55  28  35 W18       29.78S
BIG SPRING     PTCLDY    54  25  33 S8        29.73S
CARLSBAD       CLOUDY    62  25  24 W24G37    29.75R
DRYDEN           N/A     46  44  93 N7        29.80S
FORT STOCKTON  PTCLDY    54  24  31 SW13      29.79F
GUAD PASS      NOT AVBL
HOBBS          MOCLDY    54  27  35 W18       29.74F
MARFA          CLEAR     50  21  32 W17G23    29.94S
MIDLAND AIRPK  MOCLDY    59  26  29 W12       29.74R
MIDLAND INTL   PTCLDY    57  27  31 SW17      29.73S
ODESSA         MOCLDY    56  25  30 W12       29.75S
PECOS          PTCLDY    56  25  30 SW14      29.76F
PRESIDIO       FAIR      52  28  40 NW3       29.91S
SEMINOLE       MOCLDY    54  28  36 W17       29.72S
SNYDER         PTCLDY    49  29  45 SW8       29.67S
WINK           PTCLDY    57  25  29 W13       29.75R
$$
...OTHER STATIONS IN TEXAS...

CITY           SKY/WX    TMP DP  RH WIND       PRES   REMARKS
ABILENE        MOCLDY    51  43  74 S24G32    29.67F
AMARILLO       CLEAR     43  28  55 W9        29.59S WCI  38
AUSTIN         CLOUDY    55  52  89 S10       29.84F
BROWNSVILLE    PTCLDY    60  59  96 W5        29.90F FOG
CORPUS CHRISTI MOCLDY    59  57  93 S3        29.88F
DALLAS FTW     CLOUDY    52  48  86 S17       29.74F
DEL RIO        PTCLDY    51  48  89 E12       29.82R
EL PASO        MOCLDY    57  27  31 W12       29.93R
HOUSTON INT    CLOUDY    55  53  93 SE10      29.89F
LUBBOCK        PTCLDY    54  29  38 W21G30    29.62R
SAN ANGELO     MOCLDY    50  45  83 SW15      29.75F
SAN ANTONIO    DRIZZLE   56  52  86 S7        29.86F
WACO           CLOUDY    54  50  86 S13       29.81R
WICHITA FALLS  NOT AVBL
$$
...OTHER LOCATIONS IN NEW MEXICO...

CITY           SKY/WX    TMP DP  RH WIND       PRES   REMARKS
ALAMAGORDO     PTCLDY    45  28  53 NE9       29.92F WCI  40
ALBUQUERQUE    PTCLDY    38  28  67 E7        29.93S WCI  33
CANNON AFB     MOCLDY    50  28  43 NW21G26   29.69R
CLOVIS         PTCLDY    48  28  46 W23       29.67R
HOLLOMAN AFB   MOCLDY    38  30  72 N8        29.91S WCI  33
ROSWELL        CLOUDY    55  28  35 N9        29.76F
RUIDOSO        MOCLDY    48  27  43 NW38G55   29.87S WCI  39
SANTA FE       PTCLDY    33  26  75 NE6       29.87F WCI  28
TRUTH OR CONSE MOCLDY    52  29  41 NW14      29.93S
TUCUMCARI      CLEAR     47  26  44 W14       29.66R
$$

USA.gov is the U.S. government's official web portal to all federal, state and local government web resources and services.